Regional Weather Roundup
Issued by NWS

Home | Current Version | Previous Version | Text Only | Print | Product List | Glossary On
Versions: 1 2 3 4 5 6 7 8 9 10 11 12 13 14 15 16 17 18 19 20 21 22 23 24 25 26 27 28 29 30 31 32 33 34 35 36 37 38 39 40 41 42 43 44 45 46 47 48 49 50
000
ASUS44 KEWX 290202
RWRTX
SOUTH TEXAS REGIONAL WEATHER ROUNDUP
NATIONAL WEATHER SERVICE AUSTIN/SAN ANTONIO TX
900 PM CDT MON JUL 28 2014

NOTE: "FAIR" INDICATED FEW OR NO CLOUDS BELOW 12,000 FEET WITH NO
SIGNIFICANT WEATHER AND/OR OBSTRUCTIONS TO VISIBILITY.

* - THESE STATIONS ARE NOT NWS OR FAA STATIONS...AND ARE NOT SUBJECT
    TO NWS AND FAA QUALITY CONTROL.

TXZ171-172-183>190-290300-
TEXAS HILL COUNTRY AND EDWARDS PLATEAU

CITY           SKY/WX    TMP DP  RH WIND       PRES   REMARKS
JUNCTION       CLEAR     89  59  36 SE7       30.06R
*LLANO         PTCLDY    88  70  55 NE13G18   30.08R HX  92
BURNET         PTCLDY    87  67  51 NE13G21   30.09R HX  90
*HORSESHOE BAY PTCLDY    90  56  31 SE3       30.05R
*KERRVILLE     CLEAR     85  62  46 SE5       30.08S
*FREDERICKSBRG PTCLDY    88  58  36 S5        30.08R
*ROCKSPRINGS   CLEAR     88  57  35 SE6       30.12R
*BOERNE STAGE  CLEAR     81  61  50 CALM      30.07S
*CASTROVILLE   CLEAR     91  59  34 E5        30.02S HX  90
HONDO          CLEAR     89  64  43 E8        30.03S HX  90
*UVALDE        CLEAR     91  64  41 E3        30.01S HX  92
DEL RIO        CLEAR     94  62  34 E12       29.99R HX  94
LAUGHLIN AFB   NOT AVBL
CARRIZO SPRGS  CLEAR     91  61  35 E3        29.96R HX  91
$$

TXZ173-191>194-202-209-217>225-228-290300-
CENTRAL AND SOUTH CENTRAL TEXAS

CITY           SKY/WX    TMP DP  RH WIND       PRES   REMARKS
GEORGETOWN     PTCLDY    88  70  55 NE9       30.05R HX  92
AUSTIN/BERGSTM PTCLDY    90  66  45 VRB5      30.02R HX  92
AUSTIN/MABRY   CLEAR     90  65  43 CALM      30.03R HX  92
*AUSTIN/EXEC   CLEAR     86  64  48 E6        30.03S
*LAGO VISTA    CLEAR     86  60  41 E5        30.07R
SAN MARCOS     CLEAR     86  61  42 SE6       30.03R
NEW BRAUNFELS  CLEAR     87  63  44 SE6       30.01R
RANDOLPH AFB   CLEAR     88  62  41 E5        30.02S
PT SAN ANTONIO CLEAR     90  66  45 NE3       30.00S HX  92
SAN ANTONIO    PTCLDY    91  64  40 SE5       30.02S HX  92
STINSON FIELD  CLEAR     90  66  45 E3        29.99S HX  92
*PLEASANTON    CLEAR     91  68  47 SE15G23   30.00R HX  95
*LA GRANGE     MOCLDY    91  70  50 CALM      30.00S HX  96
*GIDDINGS      MOCLDY    84  67  56 CALM      30.06R
*GONZALES      MOCLDY    93  66  41 E6        30.00R HX  96
$$

TXZ163>164-176>182-195>201-210>213-226-227-235-290300-
SOUTHEAST TEXAS

CITY           SKY/WX    TMP DP  RH WIND       PRES   REMARKS
COLLEGE STN    MOCLDY    88  70  55 NE16G24   30.04R HX  93
*BRYAN         MOCLDY    84  72  67 NE10      30.04R
*CALDWELL      MOCLDY    90  66  45 CALM      30.06R HX  92
*CROCKETT      MOCLDY    79  73  83 N3        30.08F
*BRENHAM       MOCLDY    88  70  55 SE3       30.03S HX  93
HUNTSVILLE     MOCLDY    84  72  67 E5        30.05R
CONROE         PTCLDY    80  76  87 CALM      30.03F
HOUSTON BUSH   MOCLDY    85  70  60 E7        30.03R
HOUSTON HOBBY  PTCLDY    86  74  67 S8        30.03R HX  94
*HOUSTON SW AP CLEAR     82  73  72 S6        30.04S
PEARLAND       PTCLDY    86  74  67 S3        30.05R HX  94
HOUSTON HOOKS  CLEAR     83  75  77 CALM      30.03S HX  90
ELLINGTON FLD  PTCLDY    88  77  70 S7        30.06R HX 100
SUGAR LAND     CLEAR     87  74  64 S9        30.03R HX  95
*HOUSTON EXEC  CLEAR     86  72  62 NE3       30.04S HX  92
*CLEVELAND MUN CLEAR     82  79  89 CALM      30.04S HX  92
*WHARTON       PTCLDY    83  73  72 S9        30.05R
$$

TXZ214>216-236>238-290300-
THE UPPER TEXAS COAST

CITY           SKY/WX    TMP DP  RH WIND       PRES   REMARKS
*ORANGE        PTCLDY    82  75  81 CALM      30.05R
PORT ARTHUR    PTCLDY    84  78  82 SW6       30.03R HX  95
GALVESTON      CLEAR     84  77  79 SW9       30.06R HX  94
ANGLETON       CLEAR     82  76  81 S8        30.05R
*BAY CITY      PTCLDY    83  78  82 S3        30.05R HX  93
PALACIOS       PTCLDY    85  77  77 S13       30.04S HX  95
$$

TXZ229>234-239>247-290300-
TEXAS COASTAL BEND AND RIO GRANDE PLAINS

CITY           SKY/WX    TMP DP  RH WIND       PRES   REMARKS
VICTORIA       PTCLDY    86  77  74 S15       30.04R HX  97
*BEEVILLE      PTCLDY    85  70  62 SE12G17   30.03S
ROCKPORT       PTCLDY    84  77  79 S12       30.04R HX  94
*PORT ARANSAS  PTCLDY    82  78  88 S8        30.05R HX  90
*PORT LAVACA   PTCLDY    82  76  82 S9        30.04R HX  90
*INGLESIDE     PTCLDY    85  76  75 SE9       30.05R HX  94
CORPUS CHRISTI MOCLDY    84  75  74 SE16      30.04R HX  92
CORPUS NAS     MOCLDY    83  78  85 S14       30.04R HX  93
*ROBSTOWN      NOT AVBL
ALICE          CLEAR     85  70  60 SE14      30.03R
KINGSVILLE NAS MOCLDY    84  75  74 SE16      30.04R HX  92
COTULLA        CLEAR     93  68  43 SE25G32   29.98R HX  97
*FAITH RANCH   CLEAR     97  63  32 E8G17     29.97S HX  98
LAREDO         CLEAR     95  69  42 E21G28    29.99R HX 100
$$

TXZ248>255-290300-
DEEP SOUTH TEXAS

CITY           SKY/WX    TMP DP  RH WIND       PRES   REMARKS
BROWNSVILLE    CLEAR     83  75  77 SE9       30.04R HX  90
PORT ISABEL    PTCLDY    84  74  71 SE9       30.04R HX  91
*SOUTH PADRE     N/A     81  77  89 SE3       30.04S
HARLINGEN      CLEAR     84  73  69 SE14      30.02S HX  90
*HEBBRONVILLE  CLEAR     91  64  40 E20       30.02R HX  92
MCALLEN        CLEAR     87  72  60 SE14      30.02R HX  93
*WESLACO       CLEAR     87  69  55 SE10G17   30.02R HX  91
FALFURRIAS     CLEAR     83  70  64 SE9       30.02R
EDINBURG       CLEAR     88  70  54 SE10      30.02R HX  93
*ZAPATA        NOT AVBL
$$

TXZ213>215-236>238-242>244-246-247-251-254-255-290300-
CMAN STATIONS

STATION/POSITION TIME  TEMP    WIND        PRES    WAVE
                       AIR SEA DIR/SP/G            HT/PER
                 (UTC) (F)     (DEG/KT/KT) (MB)    (FT/S)
SABINE PASS      0100   84 89  250/  4/  7 1017.1
SEA RIM ST PARK  0100   85     240/ 10/ 13 1017.3
NORTH JETTY/GLS  0100   85 92  240/ 12/ 14   N/A
EAGLE POINT      0100   86 91  220/ 12/ 14 1017.3
MORGANS POINT    0100   87 91  190/  6/  8 1017.1
MISSION/ARANSAS  0100   84     150/ 15     1018.0
PORT O`CONNOR    0100          170/ 15/ 17   N/A
PORT ARANSAS     0100   82 86  140/  9/ 10 1018.0
MALAQUITE BEACH  0100   81 81  140/ 10/ 10 1016.9
BAFFIN BAY       0100   82 87  150/ 14/ 17 1017.3
PORT ISABEL      0100   83 84  150/  8/ 12 1017.5
$$

GMZ080-GMZ150>470-290300-
OFFSHORE BUOY REPORTS

STATION/POSITION TIME  TEMP    WIND        PRES    WAVE
                       AIR SEA DIR/SP/G            HT/PER
                 (UTC) (F)     (DEG/KT/KT) (MB)    (FT/S)
90 E PT ARANSAS  0200   84 85  190/  6/  8 1018.7    2/ 5
35 NE PT MANSFLD 0100   84 85  160/ 12/ 14 1017.2    2/ 6
200 E PT ISABEL  0100   85 88   CALM  /  2 1017.6    1/ 5
$$



USA.gov is the U.S. government's official web portal to all federal, state and local government web resources and services.